Home > Weather > Hayward > Past weeks

Flag for U.S.A. Weather for the Past 2 Weeks in Hayward, California, U.S.A.

Now
60 °F

Sunny.


Feels Like: 60 °F
Forecast: 49 / 72 °F
Wind: No wind

Location: Hayward Air Terminal

Current Time: Feb 9, 2016 at 10:20:43 AM

Latest Report: Feb 9, 2016 at 9:54 AM


Visibility: 9 mi

Pressure: 30.27 "Hg

Humidity: 60%

Dew point: 46 °F

Location of HaywardLocation

Historic Weather in Hayward — Graph

°F

Hayward Temperature Yesterday

Maximum temperature yesterday: 78 °F (at 1:54 PM)
Minimum temperature yesterday: 50 °F (at 6:54 AM)
Average temperature yesterday: 63 °F

High & Low Weather Summary for the Past Weeks

 TemperatureHumidityPressure
High78 °F (Feb 8, 1:54 PM)100% (Jan 30, 2:54 AM)30.50 "Hg (Jan 30, 2:54 AM)
Low41 °F (Feb 3, 4:54 AM)28% (Feb 8, 1:54 PM)29.79 "Hg (Jan 31, 2:54 PM)
Average53 °F69%30.26 "Hg
* Reported Jan 25 6:54 PM — Feb 9 8:54 AM, Hayward, Weather by CustomWeather, © 2016

Note: Actual official high and low records may vary slightly from our data, if they occured in-between our weather recording intervals... More about our weather records

Advertising

Hayward Weather History for the Previous 24 Hours

 ConditionsComfort  
Time TempWeatherWind HumidityBarometerVisibility
8:54 AM
Tue, Feb 9
56 °FSunny.No wind62%30.26 "Hg10 mi
7:54 AM53 °FSunny.3 mph66%30.24 "Hg10 mi
6:54 AM48 °FClear.No wind71%30.23 "Hg10 mi
5:54 AM52 °FClear.6 mph61%30.21 "Hg10 mi
4:54 AM52 °FClear.5 mph61%30.20 "Hg10 mi
3:54 AM52 °FClear.5 mph66%30.20 "Hg10 mi
2:54 AM51 °FClear.No wind69%30.20 "Hg10 mi
1:54 AM53 °FClear.No wind64%30.21 "Hg10 mi
12:54 AM55 °FClear.7 mph62%30.19 "Hg10 mi
11:54 PM
Mon, Feb 8
56 °FClear.No wind58%30.21 "Hg10 mi
10:54 PM59 °FClear.5 mph51%30.20 "Hg10 mi
9:54 PM62 °FClear.6 mph41%30.20 "Hg10 mi
8:54 PM63 °FClear.No wind40%30.20 "Hg10 mi
7:54 PM64 °FClear.6 mph40%30.20 "Hg10 mi
6:54 PM68 °FClear.3 mph33%30.19 "Hg10 mi
5:54 PM71 °FClear.5 mph32%30.18 "Hg10 mi
4:54 PM74 °FSunny.9 mph29%30.18 "Hg10 mi
3:54 PM73 °FSunny.3 mph38%30.18 "Hg10 mi
2:54 PM74 °FSunny.6 mph37%30.18 "Hg10 mi
1:54 PM78 °FSunny.7 mph28%30.18 "Hg10 mi
12:54 PM76 °FSunny.12 mph32%30.21 "Hg10 mi
11:54 AM72 °FSunny.6 mph40%30.25 "Hg10 mi
10:54 AM67 °FSunny.6 mph51%30.27 "Hg10 mi
Weather by CustomWeather, © 2016

See weather overviewHow to use our weather pages